Location: Bottenau
(48.5138°N, 8.0462°E)
Time: 05:06:31
(UTC+00:00)

Cosmos 2151 - Pass Details

Date: 18 April 2021
Orbit: 582 x 600 km, 82.5° (Epoch: 09 May)

Event Time Altitude Azimuth Distance (km) Brightness Sun altitude
Rises 20:37:20 0° 348° (NNW) 2,862 7.4 -19.6°
Reaches altitude 10° 20:39:34 10° 346° (NNW) 1,954 6.5 -19.8°
Maximum altitude 20:43:52 71° 264° (W) 637 3.1 -20.3°
Enters shadow 20:45:18 40° 191° (S) 886 3.5 -20.5°
